Location: Dana
(41.8364°N, 106.7042°W)
Time: 14:53:47
(UTC+00:00)

Tiros 1 despin weight - Pass Details

Date: 17 May 2026
Orbit: 554 x 591 km, 48.2° (Epoch: 6 June)

Event Time Altitude Azimuth Distance (km) Brightness Sun altitude
Rises 12:02:56 0° 250° (WSW) 2,758 ? 2.2°
Reaches altitude 10° 12:05:13 10° 253° (WSW) 1,857 ? 2.6°
Maximum altitude 12:09:26 68° 336° (NNW) 608 ? 3.3°
Drops below altitude 10° 12:13:38 10° 60° (ENE) 1,844 ? 4.0°
Sets 12:15:54 0° 63° (ENE) 2,737 ? 4.4°
